�N����,����,�~����,�C��,���x,�C��,����,���ϕ���,�ő�u�ԕ���,�ő厞����,���˗�,�I�_���x,�n�����x,�ő啗���N��,DTYPE
"18/03/27","00:10",0.0,7.2,85.7,1014.2,333.3,0.7,2.0,309.0,0.00,5.0,10.7,"00:01:04",1
"18/03/27","00:20",0.0,6.8,85.3,1014.5,316.8,2.6,3.5,325.8,0.00,4.5,10.8,"00:14:40",1
"18/03/27","00:30",0.0,6.5,87.6,1014.2,298.6,1.6,2.8,320.1,0.00,4.6,10.5,"00:21:28",1
"18/03/27","00:40",0.0,6.7,88.4,1014.0,288.6,1.3,2.1,301.0,0.00,5.0,10.7,"00:36:48",1
"18/03/27","00:50",0.0,7.1,88.6,1013.8,292.3,2.0,2.7,296.9,0.00,5.4,10.5,"00:49:52",1
"18/03/27","01:00",0.0,7.6,86.0,1014.0,306.4,2.2,3.1,322.8,0.00,5.5,10.6,"00:59:04",1
"18/03/27","01:10",0.0,7.6,83.2,1014.2,315.0,1.8,2.7,328.5,0.00,5.0,10.6,"01:02:56",1
"18/03/27","01:20",0.0,7.4,82.7,1014.2,320.5,1.7,2.7,323.2,0.00,4.7,10.2,"01:19:44",1
"18/03/27","01:30",0.0,7.3,83.6,1014.2,328.3,1.5,2.6,346.5,0.00,4.8,10.2,"01:28:56",1
"18/03/27","01:40",0.0,6.9,83.8,1014.0,305.0,1.5,2.2,304.9,0.00,4.4,10.2,"01:33:12",1
"18/03/27","01:50",0.0,6.7,85.3,1014.0,307.5,1.6,2.0,310.9,0.00,4.5,10.0,"01:45:36",1
"18/03/27","02:00",0.0,6.7,87.4,1014.0,294.9,1.6,2.1,309.2,0.00,4.8,10.2,"01:52:56",1
"18/03/27","02:10",0.0,7.0,86.1,1014.2,301.3,1.7,2.8,328.3,0.00,4.9,10.0,"02:00:40",1
"18/03/27","02:20",0.0,6.7,85.6,1014.2,317.8,1.8,3.3,314.6,0.00,4.5,10.1,"02:13:20",1
"18/03/27","02:30",0.0,6.1,86.6,1014.0,277.9,1.3,1.9,263.4,0.00,4.1,9.9,"02:21:32",1
"18/03/27","02:40",0.0,5.9,87.7,1014.0,310.0,2.2,2.5,318.8,0.00,4.1,9.9,"02:33:40",1
"18/03/27","02:50",0.0,6.0,89.5,1014.0,298.8,2.0,2.5,311.1,0.00,4.4,9.8,"02:43:34",1
"18/03/27","03:00",0.0,6.2,88.4,1013.5,299.5,2.1,3.3,314.4,0.00,4.5,9.9,"02:57:42",1
"18/03/27","03:10",0.0,6.2,88.7,1013.8,296.5,2.0,2.4,312.7,0.00,4.5,9.6,"03:00:24",1
"18/03/27","03:20",0.0,6.2,88.5,1013.5,292.3,2.0,2.5,312.4,0.00,4.5,9.7,"03:17:30",1
"18/03/27","03:30",0.0,6.0,87.9,1013.8,306.6,2.0,2.6,318.1,0.00,4.2,9.7,"03:26:44",1
"18/03/27","03:40",0.0,5.7,88.2,1013.3,320.9,2.2,2.7,315.8,0.00,3.9,9.6,"03:31:40",1
"18/03/27","03:50",0.0,5.2,89.1,1013.3,320.7,2.3,2.7,324.6,0.00,3.6,9.5,"03:40:42",1
"18/03/27","04:00",0.0,5.1,91.2,1013.3,302.9,1.6,2.1,312.0,0.00,3.8,9.6,"03:58:30",1
"18/03/27","04:10",0.0,5.3,91.1,1013.0,301.6,1.6,1.9,307.2,0.00,4.0,9.2,"04:04:26",1
"18/03/27","04:20",0.0,5.2,90.7,1013.3,290.0,1.2,1.9,295.7,0.00,3.8,9.5,"04:17:06",1
"18/03/27","04:30",0.0,5.1,91.3,1012.8,299.7,1.1,1.7,305.1,0.00,3.8,9.2,"04:29:12",1
"18/03/27","04:40",0.0,4.8,91.0,1013.0,324.9,2.1,2.7,332.4,0.00,3.5,9.4,"04:39:48",1
"18/03/27","04:50",0.0,4.7,92.6,1012.8,321.2,1.8,2.2,330.0,0.00,3.6,9.3,"04:40:24",1
"18/03/27","05:00",0.0,4.8,92.9,1013.0,300.4,1.3,2.0,317.0,0.00,3.8,9.2,"04:50:34",1
"18/03/27","05:10",0.0,4.8,92.1,1013.0,319.8,1.6,2.7,314.3,0.00,3.7,9.2,"05:09:26",1
"18/03/27","05:20",0.0,4.7,93.2,1013.3,306.1,1.6,2.5,320.7,0.00,3.7,9.2,"05:10:08",1
"18/03/27","05:30",0.0,4.6,93.4,1013.0,304.8,1.2,2.2,313.4,0.00,3.7,9.0,"05:29:36",1
"18/03/27","05:40",0.0,4.4,93.8,1013.0,325.3,2.2,2.4,331.5,0.00,3.5,8.8,"05:33:36",1
"18/03/27","05:50",0.0,4.3,94.4,1013.0,300.4,1.2,1.7,310.1,0.00,3.5,9.0,"05:48:28",1
"18/03/27","06:00",0.0,4.5,95.2,1012.8,302.4,1.5,2.0,308.7,0.00,3.8,8.9,"05:55:00",1
"18/03/27","06:10",0.0,4.7,94.2,1013.3,305.5,1.2,2.4,312.0,0.00,3.9,8.9,"06:09:38",1
"18/03/27","06:20",0.0,4.6,94.1,1013.5,323.0,1.6,2.7,318.4,0.00,3.8,8.9,"06:16:22",1
"18/03/27","06:30",0.0,4.9,95.2,1013.5,322.8,2.1,2.7,321.5,0.00,4.2,9.0,"06:22:08",1
"18/03/27","06:40",0.0,5.3,95.0,1013.8,295.7,1.6,1.9,316.9,0.01,4.6,8.9,"06:30:08",1
"18/03/27","06:50",0.0,5.9,94.4,1013.8,288.4,1.0,1.3,294.9,0.02,5.1,9.1,"06:40:24",1
"18/03/27","07:00",0.0,6.4,93.6,1014.0,298.9,1.2,2.4,321.9,0.02,5.5,9.1,"06:58:00",1
"18/03/27","07:10",0.0,6.9,93.0,1013.8,320.7,1.5,2.0,314.1,0.03,5.9,8.8,"07:04:32",1
"18/03/27","07:20",0.0,7.3,91.1,1014.5,309.0,1.7,2.1,316.4,0.04,6.0,9.0,"07:17:28",1
"18/03/27","07:30",0.0,8.0,88.3,1014.9,305.7,1.5,2.0,321.9,0.05,6.2,9.1,"07:24:56",1
"18/03/27","07:40",0.0,9.2,86.7,1014.7,298.5,0.8,1.3,314.1,0.09,7.1,9.2,"07:30:08",1
"18/03/27","07:50",0.0,10.0,81.3,1014.9,300.6,0.6,0.9,299.1,0.11,7.0,9.3,"07:47:36",1
"18/03/27","08:00",0.0,10.2,78.2,1015.4,271.6,0.5,1.1,318.0,0.13,6.6,9.4,"07:51:12",1
"18/03/27","08:10",0.0,10.7,74.6,1015.4,259.8,0.3,1.0,294.1,0.15,6.4,9.3,"08:03:52",1
"18/03/27","08:20",0.0,11.4,72.3,1015.9,252.9,0.3,0.8,299.6,0.17,6.6,9.6,"08:15:12",1
"18/03/27","08:30",0.0,11.4,69.9,1015.9,40.4,0.3,0.8,122.3,0.17,6.1,9.8,"08:22:00",1
"18/03/27","08:40",0.0,12.0,68.8,1015.6,227.4,0.3,0.6,219.7,0.19,6.5,9.9,"08:34:40",1
"18/03/27","08:50",0.0,12.3,67.0,1015.4,195.1,0.3,1.3,141.4,0.20,6.4,10.0,"08:42:08",1
"18/03/27","09:00",0.0,13.0,65.3,1015.4,257.3,0.3,1.0,137.1,0.26,6.7,10.1,"08:55:20",1
"18/03/27","09:10",0.0,13.3,61.5,1015.4,272.4,0.6,1.1,256.8,0.30,6.1,10.3,"09:03:12",1
"18/03/27","09:20",0.0,13.9,62.0,1015.4,40.0,0.6,1.7,94.9,0.32,6.8,10.7,"09:17:28",1
"18/03/27","09:30",0.0,14.6,60.7,1014.9,101.2,0.7,2.7,114.6,0.34,7.1,10.7,"09:28:00",1
"18/03/27","09:40",0.0,14.8,60.9,1015.2,153.8,0.8,2.6,138.9,0.38,7.4,10.8,"09:35:44",1
"18/03/27","09:50",0.0,15.3,57.1,1014.9,219.8,1.1,2.7,217.6,0.41,6.9,11.2,"09:45:20",1
"18/03/27","10:00",0.0,15.2,55.2,1014.7,226.8,1.1,2.2,115.9,0.43,6.3,11.5,"09:58:16",1
"18/03/27","10:10",0.0,16.2,59.9,1014.2,156.2,1.0,2.2,107.5,0.45,8.5,11.8,"10:04:32",1
"18/03/27","10:20",0.0,16.2,56.0,1014.2,194.3,1.2,2.8,170.0,0.46,7.5,12.0,"10:14:40",1
"18/03/27","10:30",0.0,16.5,57.7,1014.0,185.6,1.3,2.9,120.9,0.47,8.2,12.3,"10:24:00",1
"18/03/27","10:40",0.0,17.3,54.5,1014.0,187.0,1.6,3.2,197.1,0.49,8.1,12.5,"10:30:40",1
"18/03/27","10:50",0.0,16.9,56.2,1014.0,160.2,2.0,3.9,219.2,0.44,8.2,12.7,"10:48:32",1
"18/03/27","11:00",0.0,17.6,54.5,1013.5,176.0,1.7,3.6,192.2,0.51,8.4,12.9,"10:50:16",1
"18/03/27","11:10",0.0,17.7,54.4,1013.0,171.9,1.8,2.6,163.7,0.52,8.4,13.0,"11:06:40",1
"18/03/27","11:20",0.0,17.9,52.0,1013.3,164.7,1.8,3.7,192.4,0.52,8.0,13.4,"11:14:24",1
"18/03/27","11:30",0.0,18.7,51.4,1012.8,156.6,1.5,3.1,107.8,0.54,8.5,13.7,"11:29:52",1
"18/03/27","11:40",0.0,19.1,49.9,1012.8,174.2,1.5,3.2,120.7,0.59,8.5,14.1,"11:30:08",1
"18/03/27","11:50",0.0,19.1,49.0,1012.3,213.3,1.3,3.5,183.7,0.53,8.2,14.2,"11:46:48",1
"18/03/27","12:00",0.0,19.7,49.5,1012.6,180.6,1.7,3.7,194.0,0.46,8.9,14.5,"11:55:28",1
"18/03/27","12:10",0.0,19.6,48.6,1012.3,184.8,1.7,3.7,173.8,0.53,8.5,14.6,"12:06:00",1
"18/03/27","12:20",0.0,20.5,49.3,1011.9,179.7,1.2,3.6,198.4,0.48,9.6,14.9,"12:14:00",1
"18/03/27","12:30",0.0,20.3,49.3,1011.9,160.7,2.2,5.1,130.2,0.52,9.4,14.8,"12:21:04",1
"18/03/27","12:40",0.0,20.4,45.9,1011.6,150.9,1.6,5.7,144.1,0.50,8.4,15.3,"12:35:44",1
"18/03/27","12:50",0.0,20.5,44.6,1011.6,139.4,1.6,4.1,120.8,0.41,8.1,15.4,"12:47:36",1
"18/03/27","13:00",0.0,21.4,45.6,1011.2,149.4,1.0,3.3,133.7,0.48,9.2,15.7,"12:50:08",1
"18/03/27","13:10",0.0,21.4,39.1,1011.2,63.2,1.2,3.1,115.1,0.54,7.0,16.0,"13:03:44",1
"18/03/27","13:20",0.0,22.1,37.8,1010.4,139.6,1.7,4.4,127.8,0.54,7.1,16.1,"13:18:56",1
"18/03/27","13:30",0.0,21.9,35.8,1010.2,157.7,3.2,8.0,209.0,0.52,6.1,16.1,"13:26:08",1
"18/03/27","13:40",0.0,22.7,35.6,1010.2,172.0,3.1,6.3,167.8,0.51,6.8,16.2,"13:36:00",1
"18/03/27","13:50",0.0,22.4,34.8,1009.7,197.6,3.0,5.5,212.5,0.50,6.2,16.4,"13:46:16",1
"18/03/27","14:00",0.0,22.1,32.8,1010.0,197.6,4.0,6.7,179.2,0.47,5.0,16.6,"13:56:08",1
"18/03/27","14:10",0.0,22.0,32.8,1009.7,192.5,2.7,5.6,174.5,0.45,5.0,16.6,"14:01:36",1
"18/03/27","14:20",0.0,22.3,32.4,1009.7,170.5,2.7,4.7,138.9,0.45,5.0,16.4,"14:17:12",1
"18/03/27","14:30",0.0,22.0,33.1,1010.2,187.0,4.2,6.5,212.4,0.43,5.1,16.7,"14:20:32",1
"18/03/27","14:40",0.0,22.2,34.5,1009.7,176.2,3.9,5.8,144.2,0.41,5.9,16.7,"14:34:24",1
"18/03/27","14:50",0.0,22.0,35.2,1009.5,190.5,4.2,7.3,220.2,0.39,6.0,16.6,"14:47:52",1
"18/03/27","15:00",0.0,22.2,35.9,1009.7,186.7,4.1,6.6,206.2,0.38,6.4,16.6,"14:54:56",1
"18/03/27","15:10",0.0,22.3,37.1,1009.7,190.3,3.7,8.0,214.6,0.36,7.0,16.8,"15:00:02",1
"18/03/27","15:20",0.0,21.9,36.1,1010.0,196.2,4.4,7.8,222.2,0.34,6.2,16.6,"15:10:24",1
"18/03/27","15:30",0.0,22.1,36.4,1010.2,204.3,3.6,6.4,172.0,0.33,6.5,16.5,"15:23:36",1
"18/03/27","15:40",0.0,22.1,35.6,1010.2,235.7,1.8,5.0,225.9,0.31,6.2,16.3,"15:39:52",1
"18/03/27","15:50",0.0,22.2,35.5,1010.0,225.6,2.2,4.8,175.9,0.29,6.3,16.8,"15:49:52",1
"18/03/27","16:00",0.0,22.3,35.2,1010.2,219.0,2.5,5.0,184.0,0.26,6.2,16.6,"15:50:16",1
"18/03/27","16:10",0.0,22.3,35.3,1010.2,238.7,2.1,4.5,189.7,0.20,6.3,16.6,"16:07:52",1
"18/03/27","16:20",0.0,21.7,33.6,1009.7,230.0,2.6,6.2,221.9,0.14,5.0,16.4,"16:11:12",1
"18/03/27","16:30",0.0,21.6,32.0,1010.0,232.6,1.8,5.0,221.8,0.15,4.3,16.5,"16:27:04",1
"18/03/27","16:40",0.0,22.0,31.7,1010.2,238.7,2.1,5.2,227.2,0.15,4.5,16.5,"16:31:20",1
"18/03/27","16:50",0.0,21.6,33.1,1010.2,231.5,2.1,3.7,229.8,0.10,4.7,16.4,"16:43:44",1
"18/03/27","17:00",0.0,21.2,32.5,1010.4,267.7,1.5,3.4,242.8,0.04,4.1,16.1,"16:56:16",1
"18/03/27","17:10",0.0,21.2,33.4,1010.0,239.5,1.8,4.9,180.6,0.07,4.5,15.9,"17:06:16",1
"18/03/27","17:20",0.0,21.0,33.3,1010.2,237.3,2.1,4.1,232.6,0.06,4.3,15.7,"17:16:24",1
"18/03/27","17:30",0.0,20.7,35.4,1010.2,218.9,2.2,3.7,237.4,0.04,4.9,15.9,"17:24:48",1
"18/03/27","17:40",0.0,20.4,36.8,1010.7,229.3,1.8,4.0,233.9,0.02,5.2,15.6,"17:32:32",1
"18/03/27","17:50",0.0,19.9,39.6,1010.4,221.7,1.5,3.4,221.2,0.01,5.8,15.5,"17:40:40",1
"18/03/27","18:00",0.0,19.5,41.2,1010.2,225.4,1.6,3.7,228.3,0.00,6.0,15.4,"17:52:00",1
"18/03/27","18:10",0.0,19.0,42.9,1010.7,243.4,1.6,3.2,227.3,0.00,6.2,15.3,"18:03:44",1
"18/03/27","18:20",0.0,17.9,47.3,1010.4,316.2,1.2,2.1,338.6,0.00,6.6,15.2,"18:14:56",1
"18/03/27","18:30",0.0,16.9,50.8,1010.9,321.3,1.6,3.3,336.9,0.00,6.7,15.0,"18:20:02",1
"18/03/27","18:40",0.0,16.1,53.4,1010.9,301.3,1.3,2.4,330.9,0.00,6.7,15.0,"18:30:08",1
"18/03/27","18:50",0.0,15.5,55.6,1010.9,300.0,1.3,2.2,323.0,0.00,6.7,14.7,"18:47:44",1
"18/03/27","19:00",0.0,14.9,58.1,1011.2,285.9,1.2,2.0,258.9,0.00,6.8,14.7,"18:54:32",1
"18/03/27","19:10",0.0,14.7,59.2,1010.9,304.1,1.6,2.8,321.4,0.00,6.9,14.5,"19:05:52",1
"18/03/27","19:20",0.0,14.4,60.0,1011.4,289.3,1.5,2.4,311.6,0.00,6.8,14.2,"19:10:48",1
"18/03/27","19:30",0.0,14.1,61.2,1011.4,293.3,1.5,2.0,304.9,0.00,6.8,14.1,"19:23:36",1
"18/03/27","19:40",0.0,13.9,62.3,1011.4,298.2,1.7,2.5,316.6,0.00,6.9,14.1,"19:34:56",1
"18/03/27","19:50",0.0,13.6,63.4,1011.6,287.2,1.3,1.6,291.3,0.00,6.8,13.9,"19:43:28",1
"18/03/27","20:00",0.0,13.3,63.9,1011.6,284.0,1.3,2.5,304.1,0.00,6.7,13.8,"19:50:56",1
"18/03/27","20:10",0.0,13.2,65.3,1011.9,280.8,1.0,1.7,275.3,0.00,6.9,13.7,"20:06:18",1
"18/03/27","20:20",0.0,12.9,67.7,1012.1,343.2,1.6,2.9,341.6,0.00,7.1,13.7,"20:13:54",1
"18/03/27","20:30",0.0,12.6,68.7,1012.3,313.9,1.0,1.6,284.8,0.00,7.0,13.4,"20:28:30",1
"18/03/27","20:40",0.0,12.1,69.7,1012.6,293.1,1.0,1.7,301.0,0.00,6.8,13.4,"20:30:34",1
"18/03/27","20:50",0.0,11.8,70.5,1012.3,321.8,2.0,2.6,324.8,0.00,6.7,13.3,"20:49:02",1
"18/03/27","21:00",0.0,11.7,70.6,1012.3,347.1,1.3,2.7,319.8,0.00,6.6,13.1,"20:52:04",1
"18/03/27","21:10",0.0,11.1,73.6,1012.6,295.0,1.2,2.1,306.2,0.00,6.6,12.7,"21:04:50",1
"18/03/27","21:20",0.0,11.1,73.9,1012.6,286.4,1.2,1.8,312.7,0.00,6.7,12.7,"21:15:54",1
"18/03/27","21:30",0.0,11.3,72.7,1012.6,292.1,1.5,2.2,311.4,0.00,6.6,12.7,"21:28:50",1
"18/03/27","21:40",0.0,10.9,73.5,1012.3,320.4,1.5,1.9,323.1,0.00,6.4,12.7,"21:33:16",1
"18/03/27","21:50",0.0,11.0,74.1,1012.6,325.1,1.6,3.1,314.9,0.00,6.6,12.3,"21:45:36",1
"18/03/27","22:00",0.0,10.9,73.6,1012.3,322.9,1.2,1.6,330.7,0.00,6.4,12.4,"21:57:08",1
"18/03/27","22:10",0.0,10.5,74.2,1012.6,299.3,1.1,2.1,319.9,0.00,6.1,12.3,"22:00:24",1
"18/03/27","22:20",0.0,10.8,75.6,1012.6,299.7,1.8,3.4,337.5,0.00,6.7,12.4,"22:18:12",1
"18/03/27","22:30",0.0,10.8,73.3,1012.8,11.1,1.3,3.1,334.2,0.00,6.3,12.1,"22:20:16",1
"18/03/27","22:40",0.0,10.4,75.1,1012.6,323.4,1.1,2.1,328.2,0.00,6.2,11.9,"22:36:10",1
"18/03/27","22:50",0.0,10.1,75.6,1013.0,313.5,1.7,2.1,309.0,0.00,6.0,11.9,"22:46:50",1
"18/03/27","23:00",0.0,9.6,77.9,1012.8,280.0,1.0,1.4,314.5,0.00,6.0,11.9,"22:50:16",1
"18/03/27","23:10",0.0,9.7,78.6,1013.0,292.7,1.7,2.4,317.4,0.00,6.2,11.9,"23:01:12",1
"18/03/27","23:20",0.0,9.7,78.5,1012.8,299.1,1.8,2.5,313.0,0.00,6.2,11.7,"23:17:36",1
"18/03/27","23:30",0.0,9.7,78.8,1012.6,295.2,1.7,2.2,296.8,0.00,6.2,11.7,"23:24:16",1
"18/03/27","23:40",0.0,9.5,79.1,1013.0,309.2,1.6,2.1,317.3,0.00,6.1,11.5,"23:39:06",1
"18/03/27","23:50",0.0,9.4,79.8,1013.0,303.2,1.6,2.4,326.6,0.00,6.1,11.5,"23:43:54",1
"18/03/27","24:00",0.0,9.3,80.3,1013.0,293.7,1.6,2.0,294.3,0.00,6.1,11.6,"23:54:40",1
